User: anonymous   Login
Location: Albany
(35.0170°S, 117.8920°E)
Time: 23:24:44
(UTC+08:00)
Language:

Explorer 11/Cluster Stage 4 - Orbit

View from above orbital plane
View from above orbital plane
View from above satellite
View from above satellite

Ground track
Ground track

The orbit data is extracted from the following two-line orbital elements,

1 00107U 61013A   21022.71083973  .00000663  00000-0  68055-4 0  9997
2 00107  28.7924  23.0413 0545919 304.7413  50.2914 14.09097370997174
Epoch (UTC): 22 January 2021 17:03:36
Eccentricity: 0.0545919
inclination: 28.7924°
perigee height: 467 km
apogee height: 1258 km
right ascension of ascending node: 23.0413°
argument of perigee: 304.7413°
revolutions per day: 14.09097370
mean anomaly at epoch: 50.2914°
orbit number at epoch: 99717

The dashed part of the orbit path shows where the satellite is in the earth's shadow,  

DLR